TimeEST,TemperatureF,Dew PointF,Humidity,Sea Level PressureIn,VisibilityMPH,Wind Direction,Wind SpeedMPH,Gust SpeedMPH,PrecipitationIn,Events,Conditions,WindDirDegrees,DateUTC
12:15 AM,39.2,21.2,49,30.27,10.0,SSW,6.9,-,N/A,,Clear,200,2013-02-19 05:15:00
12:35 AM,39.2,23.0,52,30.27,10.0,SSW,6.9,-,N/A,,Clear,200,2013-02-19 05:35:00
12:55 AM,39.2,23.0,52,30.27,10.0,South,5.8,-,N/A,,Clear,190,2013-02-19 05:55:00
1:15 AM,39.2,24.8,56,30.25,10.0,South,8.1,-,N/A,,Clear,180,2013-02-19 06:15:00
1:35 AM,39.2,24.8,56,30.24,10.0,South,5.8,-,N/A,,Clear,190,2013-02-19 06:35:00
1:55 AM,39.2,24.8,56,30.23,10.0,South,6.9,-,N/A,,Clear,180,2013-02-19 06:55:00
2:15 AM,39.2,24.8,56,30.22,10.0,South,9.2,-,N/A,,Clear,180,2013-02-19 07:15:00
2:35 AM,37.4,24.8,60,30.22,10.0,South,5.8,-,N/A,,Clear,190,2013-02-19 07:35:00
2:55 AM,37.4,26.6,65,30.22,10.0,SSW,5.8,-,N/A,,Clear,200,2013-02-19 07:55:00
3:15 AM,37.4,24.8,60,30.22,10.0,SSW,8.1,-,N/A,,Clear,210,2013-02-19 08:15:00
3:35 AM,37.4,24.8,60,30.20,10.0,SSW,9.2,-,N/A,,Clear,200,2013-02-19 08:35:00
3:55 AM,37.4,26.6,65,30.19,10.0,South,8.1,-,N/A,,Clear,190,2013-02-19 08:55:00
4:15 AM,37.4,26.6,65,30.19,10.0,South,8.1,-,N/A,,Clear,190,2013-02-19 09:15:00
4:35 AM,37.4,26.6,65,30.18,10.0,South,9.2,-,N/A,,Clear,180,2013-02-19 09:35:00
4:55 AM,37.4,26.6,65,30.16,10.0,South,11.5,17.3,N/A,,Clear,180,2013-02-19 09:55:00
5:15 AM,37.4,26.6,65,30.15,10.0,South,9.2,-,N/A,,Clear,170,2013-02-19 10:15:00
5:35 AM,37.4,28.4,70,30.16,10.0,South,9.2,-,N/A,,Clear,180,2013-02-19 10:35:00
5:55 AM,37.4,28.4,70,30.15,10.0,South,9.2,-,N/A,,Clear,180,2013-02-19 10:55:00
6:15 AM,37.4,28.4,70,30.14,10.0,South,6.9,-,N/A,,Clear,170,2013-02-19 11:15:00
6:55 AM,37.4,28.4,70,30.13,10.0,South,4.6,-,N/A,,Clear,180,2013-02-19 11:55:00
7:15 AM,37.4,30.2,75,30.13,10.0,SSW,3.5,-,N/A,,Clear,200,2013-02-19 12:15:00
7:35 AM,39.2,32.0,75,30.13,10.0,SSW,4.6,-,N/A,,Clear,200,2013-02-19 12:35:00
7:55 AM,41.0,33.8,76,30.12,10.0,South,6.9,-,N/A,,Clear,190,2013-02-19 12:55:00
8:15 AM,42.8,33.8,70,30.12,10.0,South,6.9,-,N/A,,Clear,180,2013-02-19 13:15:00
8:35 AM,44.6,35.6,71,30.11,10.0,SSW,6.9,-,N/A,,Scattered Clouds,200,2013-02-19 13:35:00
8:55 AM,44.6,35.6,71,30.10,10.0,South,9.2,-,N/A,,Mostly Cloudy,180,2013-02-19 13:55:00
9:15 AM,46.4,37.4,71,30.09,10.0,SSW,10.4,20.7,N/A,,Scattered Clouds,200,2013-02-19 14:15:00
9:35 AM,48.2,37.4,66,30.08,10.0,South,9.2,19.6,N/A,,Scattered Clouds,190,2013-02-19 14:35:00
9:55 AM,48.2,37.4,66,30.07,10.0,South,8.1,-,N/A,,Overcast,190,2013-02-19 14:55:00
10:15 AM,50.0,39.2,66,30.06,10.0,South,6.9,-,N/A,,Mostly Cloudy,190,2013-02-19 15:15:00
10:35 AM,51.8,39.2,62,30.06,10.0,SSW,8.1,-,N/A,,Overcast,200,2013-02-19 15:35:00
10:55 AM,53.6,39.2,58,30.05,10.0,SSW,8.1,-,N/A,,Mostly Cloudy,200,2013-02-19 15:55:00
11:15 AM,55.4,41.0,58,30.03,10.0,SSW,12.7,18.4,N/A,,Mostly Cloudy,210,2013-02-19 16:15:00
11:35 AM,55.4,42.8,63,30.01,10.0,South,8.1,-,N/A,,Scattered Clouds,190,2013-02-19 16:35:00
11:55 AM,55.4,42.8,63,29.99,10.0,SSW,6.9,-,N/A,,Scattered Clouds,200,2013-02-19 16:55:00
12:15 PM,57.2,42.8,59,29.98,10.0,WSW,9.2,-,N/A,,Mostly Cloudy,240,2013-02-19 17:15:00
12:35 PM,57.2,42.8,59,29.95,10.0,WSW,8.1,-,N/A,,Mostly Cloudy,250,2013-02-19 17:35:00
12:55 PM,57.2,44.6,63,29.95,7.0,WSW,11.5,18.4,N/A,,Mostly Cloudy,240,2013-02-19 17:55:00
1:15 PM,55.4,46.4,72,29.93,7.0,WSW,9.2,20.7,N/A,,Overcast,240,2013-02-19 18:15:00
1:35 PM,53.6,46.4,77,29.92,5.0,SSW,9.2,16.1,0.01,,Overcast,210,2013-02-19 18:35:00
1:55 PM,53.6,48.2,82,29.90,7.0,SW,11.5,17.3,0.02,,Mostly Cloudy,220,2013-02-19 18:55:00
2:15 PM,53.6,48.2,82,29.89,10.0,SSW,11.5,18.4,N/A,,Overcast,200,2013-02-19 19:15:00
2:35 PM,53.6,48.2,82,29.87,10.0,SSW,9.2,17.3,N/A,,Overcast,200,2013-02-19 19:35:00
2:55 PM,53.6,48.2,82,29.85,10.0,South,9.2,-,N/A,,Overcast,190,2013-02-19 19:55:00
3:15 PM,53.6,48.2,82,29.83,10.0,SSW,6.9,-,N/A,,Mostly Cloudy,200,2013-02-19 20:15:00
3:35 PM,55.4,48.2,77,29.82,10.0,SSW,10.4,18.4,N/A,,Mostly Cloudy,200,2013-02-19 20:35:00
3:55 PM,55.4,48.2,77,29.82,7.0,SW,8.1,18.4,N/A,,Overcast,230,2013-02-19 20:55:00
4:15 PM,53.6,50.0,88,29.82,2.5,SW,17.3,21.9,N/A,,Overcast,220,2013-02-19 21:15:00
4:35 PM,53.6,50.0,88,29.81,10.0,SW,12.7,19.6,N/A,,Overcast,220,2013-02-19 21:35:00
4:55 PM,53.6,50.0,88,29.80,3.0,SW,9.2,18.4,N/A,,Overcast,220,2013-02-19 21:55:00
5:15 PM,53.6,50.0,88,29.80,2.0,SW,8.1,16.1,N/A,,Overcast,230,2013-02-19 22:15:00
5:35 PM,53.6,50.0,88,29.81,2.0,SW,8.1,-,N/A,,Overcast,230,2013-02-19 22:35:00
5:55 PM,51.8,50.0,94,29.81,3.0,West,10.4,-,0.02,,Overcast,270,2013-02-19 22:55:00
6:15 PM,51.8,50.0,94,29.82,10.0,West,11.5,25.3,0.02,,Overcast,270,2013-02-19 23:15:00
7:35 PM,51.8,46.4,82,29.84,10.0,West,11.5,18.4,N/A,,Mostly Cloudy,260,2013-02-20 00:35:00
7:55 PM,50.0,46.4,87,29.85,10.0,West,11.5,-,N/A,,Mostly Cloudy,270,2013-02-20 00:55:00
8:15 PM,50.0,46.4,87,29.86,10.0,West,11.5,17.3,N/A,,Mostly Cloudy,280,2013-02-20 01:15:00
8:35 PM,48.2,44.6,87,29.87,10.0,West,10.4,16.1,N/A,,Scattered Clouds,260,2013-02-20 01:35:00
8:55 PM,48.2,44.6,87,29.87,10.0,West,10.4,17.3,N/A,,Clear,270,2013-02-20 01:55:00
9:15 PM,46.4,42.8,87,29.87,10.0,West,9.2,-,N/A,,Clear,270,2013-02-20 02:15:00
9:35 PM,46.4,42.8,87,29.87,10.0,West,8.1,-,N/A,,Clear,260,2013-02-20 02:35:00
9:55 PM,46.4,42.8,87,29.87,10.0,West,6.9,-,N/A,,Clear,260,2013-02-20 02:55:00
10:15 PM,46.4,42.8,87,29.88,10.0,West,9.2,-,N/A,,Clear,260,2013-02-20 03:15:00
10:35 PM,44.6,41.0,87,29.88,10.0,West,9.2,-,N/A,,Clear,270,2013-02-20 03:35:00
10:55 PM,44.6,41.0,87,29.88,10.0,West,9.2,-,N/A,,Clear,270,2013-02-20 03:55:00
11:15 PM,44.6,39.2,81,29.89,10.0,West,9.2,-,N/A,,Clear,280,2013-02-20 04:15:00
11:35 PM,44.6,39.2,81,29.89,10.0,West,6.9,-,N/A,,Clear,280,2013-02-20 04:35:00
11:55 PM,42.8,37.4,81,29.89,10.0,West,4.6,-,N/A,,Clear,280,2013-02-20 04:55:00